Tracking 25709 objects as of 23-May-2022
HD Live streaming from Space Station
objects crossing your sky now

FLOCK 3P 30

Track FLOCK 3P 30 now!
10-day predictions
FLOCK 3P 30 is classified as:


NORAD ID: 41987
Int'l Code: 2017-008AR
Perigee: 452.6 km
Apogee: 457.9 km
Inclination: 97.3 °
Period: 93.5 minutes
Semi major axis: 6826 km
RCS: Unknown
Launch date: February 15, 2017
Source: United States (US)
Launch site: SRIHARIKOTA (SRI)
aabbcc
Your satellite tracking list
Your tracking list is empty




NASA's NSSDC Master Catalog

Two Line Element Set (TLE):
1 41987U 17008AR  22142.80898376  .00049478  00000-0  12632-2 0  9993
2 41987  97.2803 212.0672 0003866 306.4576  53.6313 15.39323133293091
Source of the keplerian elements: AFSPC